,,,PA_Meas_PMT16A,,PR_Meas_QMR101_102,,RH_Meas_QMH101,,SR_Meas_QMS101,,TA_Meas_QMH101,,GenWind,,GenWind,
date,time,status,PA,status,PR,status,RH,status,SR,status,TA,status,DirAvg,status,SpdAvg,
2010-10-19, 00:00:04,VALID,1005.49,VALID,0,VALID,77.0364,VALID,335.076,VALID,29.0238,VALID,55,VALID,0.76875,
2010-10-19, 00:01:04,VALID,1005.47,VALID,0,VALID,77.6239,VALID,344.73,VALID,29.1798,VALID,84,VALID,0.639063,
2010-10-19, 00:02:04,VALID,1005.5,VALID,0,VALID,75.5793,VALID,346.037,VALID,29.1581,VALID,95,VALID,1.43281,
2010-10-19, 00:03:04,VALID,1005.45,VALID,0,VALID,75.9837,VALID,364.842,VALID,29.1581,VALID,36,VALID,0.453125,
2010-10-19, 00:04:04,VALID,1005.45,VALID,0,VALID,76.2735,VALID,363.636,VALID,29.2361,VALID,31,VALID,0.792188,
2010-10-19, 00:05:04,VALID,1005.49,VALID,0,VALID,76.4338,VALID,372.586,VALID,29.3358,VALID,73,VALID,0.992969,
2010-10-19, 00:06:04,VALID,1005.47,VALID,0,VALID,75.236,VALID,381.033,VALID,29.314,VALID,97,VALID,1.09648,
2010-10-19, 00:07:04,VALID,1005.48,VALID,0,VALID,75.9455,VALID,395.414,VALID,29.2945,VALID,88,VALID,0.851172,
2010-10-19, 00:08:04,VALID,1005.51,VALID,0,VALID,75.2284,VALID,394.71,VALID,29.2751,VALID,101,VALID,0.998828,
2010-10-19, 00:09:04,VALID,1005.5,VALID,0,VALID,76.6779,VALID,397.425,VALID,29.3748,VALID,74,VALID,0.720312,
2010-10-19, 00:10:04,VALID,1005.51,VALID,0,VALID,74.9995,VALID,402.151,VALID,29.4528,VALID,105,VALID,0.796094,
2010-10-19, 00:11:04,VALID,1005.5,VALID,0,VALID,75.4344,VALID,407.079,VALID,29.4918,VALID,90,VALID,1.13281,
2010-10-19, 00:12:04,VALID,1005.5,VALID,0,VALID,74.1222,VALID,415.627,VALID,29.5698,VALID,107,VALID,0.886719,
2010-10-19, 00:13:04,VALID,1005.5,VALID,0,VALID,73.0542,VALID,410.498,VALID,29.4918,VALID,106,VALID,1.27305,
2010-10-19, 00:14:04,VALID,1005.48,VALID,0,VALID,73.7942,VALID,394.207,VALID,29.431,VALID,86,VALID,1.46016,
2010-10-19, 00:15:04,VALID,1005.47,VALID,0,VALID,73.2525,VALID,415.727,VALID,29.4723,VALID,61,VALID,0.787109,
2010-10-19, 00:16:04,VALID,1005.45,VALID,0,VALID,73.1381,VALID,404.263,VALID,29.5503,VALID,13,VALID,0.382813,
2010-10-19, 00:17:04,VALID,1005.41,VALID,0,VALID,73.5195,VALID,415.526,VALID,29.6868,VALID,103,VALID,1.22773,
2010-10-19, 00:18:04,VALID,1005.45,VALID,0,VALID,73.8094,VALID,424.878,VALID,29.665,VALID,109,VALID,1.01094,
2010-10-19, 00:19:04,VALID,1005.43,VALID,0,VALID,72.3447,VALID,422.465,VALID,29.6065,VALID,114,VALID,1.15547,
2010-10-19, 00:20:04,VALID,1005.42,VALID,0,VALID,71.8335,VALID,441.069,VALID,29.6478,VALID,98,VALID,0.852734,
2010-10-19, 00:21:04,VALID,1005.43,VALID,0,VALID,71.3377,VALID,439.963,VALID,29.7235,VALID,93,VALID,0.853516,
2010-10-19, 00:22:04,VALID,1005.4,VALID,0,VALID,71.9785,VALID,441.069,VALID,29.9013,VALID,81,VALID,0.553516,
2010-10-19, 00:23:04,VALID,1005.41,VALID,0,VALID,71.0935,VALID,462.288,VALID,30.055,VALID,89,VALID,0.685938,
2010-10-19, 00:24:04,VALID,1005.43,VALID,0,VALID,69.461,VALID,437.047,VALID,30.2523,VALID,84,VALID,0.410547,
2010-10-19, 00:25:04,VALID,1005.44,VALID,0,VALID,69.8958,VALID,257.24,VALID,30.4061,VALID,46,VALID,0.434766,
2010-10-19, 00:26:04,VALID,1005.45,VALID,0,VALID,68.2251,VALID,187.65,VALID,30.3476,VALID,80,VALID,1.14023,
2010-10-19, 00:27:04,VALID,1005.46,VALID,0,VALID,69.4457,VALID,208.366,VALID,30.2156,VALID,107,VALID,1.31484,
2010-10-19, 00:28:04,VALID,1005.47,VALID,0,VALID,70.2238,VALID,179.807,VALID,29.9403,VALID,91,VALID,0.822266,
2010-10-19, 00:29:04,VALID,1005.48,VALID,0,VALID,70.7502,VALID,175.784,VALID,29.7843,VALID,63,VALID,0.803125,
2010-10-19, 00:30:04,VALID,1005.51,VALID,0,VALID,71.4368,VALID,166.633,VALID,29.6868,VALID,104,VALID,0.48125,
2010-10-19, 00:31:04,VALID,1005.47,VALID,0,VALID,72.6651,VALID,161.806,VALID,29.689,VALID,106,VALID,0.410937,
2010-10-19, 00:32:04,VALID,1005.47,VALID,0,VALID,72.8329,VALID,149.839,VALID,29.6283,VALID,76,VALID,0.627344,
2010-10-19, 00:33:04,VALID,1005.43,VALID,0,VALID,70.3917,VALID,152.453,VALID,29.4115,VALID,97,VALID,1.38828,
2010-10-19, 00:34:04,VALID,1005.45,VALID,0,VALID,71.1164,VALID,163.214,VALID,29.2773,VALID,109,VALID,1.23516,
2010-10-19, 00:35:04,VALID,1005.47,VALID,0,VALID,71.9022,VALID,307.119,VALID,29.1018,VALID,99,VALID,1.0668,
2010-10-19, 00:36:04,VALID,1005.47,VALID,0,VALID,71.8869,VALID,216.11,VALID,29.0065,VALID,106,VALID,1.62383,
2010-10-19, 00:37:04,VALID,1005.53,VALID,0,VALID,74.1985,VALID,174.477,VALID,28.909,VALID,94,VALID,1.15977,
2010-10-19, 00:38:04,VALID,1005.55,VALID,0,VALID,74.2214,VALID,280.168,VALID,28.8873,VALID,52,VALID,0.457031,
2010-10-19, 00:39:04,VALID,1005.54,VALID,0,VALID,74.4274,VALID,245.374,VALID,28.8873,VALID,117,VALID,1.13203,
2010-10-19, 00:40:04,VALID,1005.62,VALID,0,VALID,74.7325,VALID,233.708,VALID,28.8851,VALID,63,VALID,0.581641,
2010-10-19, 00:41:04,VALID,1005.59,VALID,0,VALID,73.8704,VALID,305.812,VALID,28.9458,VALID,51,VALID,0.582422,
2010-10-19, 00:42:04,VALID,1005.63,VALID,0,VALID,74.6944,VALID,214.501,VALID,28.9241,VALID,64,VALID,1.31523,
2010-10-19, 00:43:04,VALID,1005.62,VALID,0,VALID,74.168,VALID,539.219,VALID,29.0043,VALID,64,VALID,0.603516,
2010-10-19, 00:44:04,VALID,1005.6,VALID,0,VALID,73.3822,VALID,557.018,VALID,29.1603,VALID,82,VALID,0.945703,
2010-10-19, 00:45:04,VALID,1005.64,VALID,0,VALID,73.6034,VALID,530.067,VALID,29.3358,VALID,61,VALID,0.930469,
2010-10-19, 00:46:04,VALID,1005.68,VALID,0,VALID,74.2366,VALID,572.907,VALID,29.5698,VALID,53,VALID,0.489844,
2010-10-19, 00:47:04,VALID,1005.68,VALID,0,VALID,71.0859,VALID,575.723,VALID,29.8233,VALID,12,VALID,0.555469,
2010-10-19, 00:48:04,VALID,1005.71,VALID,0,VALID,73.4051,VALID,581.254,VALID,29.9598,VALID,20,VALID,0.280078,
2010-10-19, 00:49:04,VALID,1005.72,VALID,0,VALID,71.8564,VALID,576.729,VALID,30.1353,VALID,71,VALID,0.69375,
2010-10-19, 00:50:04,VALID,1005.74,VALID,0,VALID,72.1158,VALID,268.201,VALID,30.3304,VALID,94,VALID,0.767187,
2010-10-19, 00:51:04,VALID,1005.73,VALID,0,VALID,68.1106,VALID,193.181,VALID,30.4279,VALID,8,VALID,0.785937,
2010-10-19, 00:52:04,VALID,1005.74,VALID,0,VALID,69.3923,VALID,289.521,VALID,30.3912,VALID,4,VALID,0.629297,
2010-10-19, 00:53:04,VALID,1005.79,VALID,0,VALID,69.583,VALID,573.51,VALID,30.3499,VALID,85,VALID,0.671094,
2010-10-19, 00:54:04,VALID,1005.76,VALID,0,VALID,68.5913,VALID,555.107,VALID,30.2936,VALID,293,VALID,0.459766,
2010-10-19, 00:55:04,VALID,1005.77,VALID,0,VALID,65.4711,VALID,541.632,VALID,30.2328,VALID,76,VALID,1.40781,
2010-10-19, 00:56:04,VALID,1005.73,VALID,0,VALID,66.089,VALID,500.301,VALID,30.0986,VALID,76,VALID,0.542969,
2010-10-19, 00:57:04,VALID,1005.74,VALID,0,VALID,67.7826,VALID,524.335,VALID,30.1376,VALID,31,VALID,1.15391,
2010-10-19, 00:58:04,VALID,1005.75,VALID,0,VALID,66.6917,VALID,481.697,VALID,30.1181,VALID,36,VALID,1.4707,
2010-10-19, 00:59:04,VALID,1005.73,VALID,0,VALID,65.0133,VALID,225.06,VALID,30.0791,VALID,104,VALID,1.37461,
2010-10-19, 01:00:04,VALID,1005.74,VALID,0,VALID,66.829,VALID,450.019,VALID,29.9988,VALID,89,VALID,0.371875,
2010-10-19, 01:01:04,VALID,1005.75,VALID,0,VALID,66.5238,VALID,412.911,VALID,30.0791,VALID,72,VALID,0.465234,
2010-10-19, 01:02:04,VALID,1005.71,VALID,0,VALID,66.768,VALID,376.608,VALID,30.1961,VALID,97,VALID,0.980859,
2010-10-19, 01:03:04,VALID,1005.7,VALID,0,VALID,66.5162,VALID,509.955,VALID,30.1158,VALID,114,VALID,0.675391,
2010-10-19, 01:04:04,VALID,1005.66,VALID,0,VALID,66.623,VALID,461.584,VALID,30.1158,VALID,132,VALID,0.961328,
2010-10-19, 01:05:04,VALID,1005.67,VALID,0,VALID,66.3407,VALID,520.313,VALID,30.0963,VALID,177,VALID,0.801953,
2010-10-19, 01:06:04,VALID,1005.69,VALID,0,VALID,67.5537,VALID,549.677,VALID,30.1548,VALID,124,VALID,0.982813,
2010-10-19, 01:07:04,VALID,1005.66,VALID,0,VALID,67.5003,VALID,512.167,VALID,30.2913,VALID,81,VALID,0.948438,
2010-10-19, 01:08:04,VALID,1005.65,VALID,0,VALID,67.1876,VALID,573.309,VALID,30.4256,VALID,4,VALID,0.616406,
2010-10-19, 01:09:04,VALID,1005.64,VALID,0,VALID,65.5779,VALID,610.317,VALID,30.6401,VALID,101,VALID,0.816016,
2010-10-19, 01:10:04,VALID,1005.65,VALID,0,VALID,64.7845,VALID,652.855,VALID,30.6596,VALID,75,VALID,0.993359,
2010-10-19, 01:11:04,VALID,1005.66,VALID,0,VALID,64.6014,VALID,667.839,VALID,30.7205,VALID,198,VALID,0.926953,
2010-10-19, 01:12:04,VALID,1005.67,VALID,0,VALID,63.0985,VALID,672.967,VALID,30.6229,VALID,112,VALID,0.847656,
2010-10-19, 01:13:04,VALID,1005.69,VALID,0,VALID,64.3801,VALID,640.184,VALID,30.6034,VALID,144,VALID,0.709375,
2010-10-19, 01:14:04,VALID,1005.66,VALID,0,VALID,64.075,VALID,396.62,VALID,30.7205,VALID,198,VALID,0.708984,
2010-10-19, 01:15:04,VALID,1005.68,VALID,0,VALID,64.8989,VALID,535.095,VALID,30.8157,VALID,214,VALID,0.473437,
2010-10-19, 01:16:04,VALID,1005.67,VALID,0,VALID,62.2211,VALID,568.784,VALID,30.8375,VALID,193,VALID,0.722656,
2010-10-19, 01:17:04,VALID,1005.72,VALID,0,VALID,62.2898,VALID,496.68,VALID,30.818,VALID,186,VALID,0.00585938,
2010-10-19, 01:18:04,VALID,1005.69,VALID,0,VALID,63.0374,VALID,235.016,VALID,30.9132,VALID,183,VALID,0.261719,
2010-10-19, 01:19:04,VALID,1005.69,VALID,0,VALID,61.855,VALID,525.341,VALID,30.9546,VALID,34,VALID,0.833203,
2010-10-19, 01:20:04,VALID,1005.7,VALID,0,VALID,61.9541,VALID,212.389,VALID,30.857,VALID,33,VALID,0.224219,
2010-10-19, 01:21:04,VALID,1005.71,VALID,0,VALID,62.1067,VALID,704.946,VALID,30.8765,VALID,30,VALID,0.417578,
2010-10-19, 01:22:04,VALID,1005.68,VALID,0,VALID,63.0374,VALID,742.858,VALID,30.896,VALID,92,VALID,0.280469,
2010-10-19, 01:23:04,VALID,1005.72,VALID,0,VALID,63.724,VALID,742.557,VALID,31.0521,VALID,21,VALID,0.353125,
2010-10-19, 01:24:04,VALID,1005.7,VALID,0,VALID,62.3203,VALID,748.389,VALID,31.3447,VALID,9,VALID,1.22305,
2010-10-19, 01:25:04,VALID,1005.7,VALID,0,VALID,62.2746,VALID,762.368,VALID,31.1301,VALID,53,VALID,0.636719,
2010-10-19, 01:26:04,VALID,1005.67,VALID,0,VALID,61.1302,VALID,797.665,VALID,31.191,VALID,349,VALID,0.798437,
2010-10-19, 01:27:04,VALID,1005.65,VALID,0,VALID,62.1983,VALID,253.318,VALID,31.1496,VALID,307,VALID,0.497266,
2010-10-19, 01:28:04,VALID,1005.62,VALID,0,VALID,62.5492,VALID,229.585,VALID,31.191,VALID,2,VALID,0.861328,
2010-10-19, 01:29:04,VALID,1005.59,VALID,0,VALID,60.8403,VALID,450.824,VALID,31.1496,VALID,277,VALID,1.41406,
2010-10-19, 01:30:04,VALID,1005.57,VALID,0,VALID,62.0304,VALID,781.374,VALID,31.1496,VALID,299,VALID,0.45625,
2010-10-19, 01:31:04,VALID,1005.54,VALID,0,VALID,60.291,VALID,771.921,VALID,31.2472,VALID,295,VALID,1.35469,
2010-10-19, 01:32:04,VALID,1005.58,VALID,0,VALID,60.3063,VALID,765.284,VALID,31.2667,VALID,3,VALID,1.37109,
2010-10-19, 01:33:04,VALID,1005.56,VALID,0,VALID,61.8016,VALID,753.619,VALID,31.2105,VALID,8,VALID,0.678125,
2010-10-19, 01:34:04,VALID,1005.53,VALID,0,VALID,59.9935,VALID,745.171,VALID,31.2667,VALID,354,VALID,1.70977,
2010-10-19, 01:35:04,VALID,1005.53,VALID,0,VALID,61.8321,VALID,736.422,VALID,31.3252,VALID,4,VALID,1.2168,
2010-10-19, 01:36:04,VALID,1005.51,VALID,0,VALID,60.7564,VALID,756.937,VALID,31.5008,VALID,230,VALID,0.425,
2010-10-19, 01:37:04,VALID,1005.54,VALID,0,VALID,59.2154,VALID,775.139,VALID,31.6374,VALID,3,VALID,1.16172,
2010-10-19, 01:38:04,VALID,1005.5,VALID,0,VALID,59.963,VALID,782.279,VALID,31.5789,VALID,355,VALID,1.16641,
2010-10-19, 01:39:04,VALID,1005.53,VALID,0,VALID,60.5809,VALID,800.28,VALID,31.5984,VALID,12,VALID,0.792188,
2010-10-19, 01:40:04,VALID,1005.5,VALID,0,VALID,59.3527,VALID,793.14,VALID,31.6398,VALID,290,VALID,0.875781,
2010-10-19, 01:41:04,VALID,1005.49,VALID,0,VALID,60.6801,VALID,804.202,VALID,31.7155,VALID,21,VALID,1.06836,
2010-10-19, 01:42:04,VALID,1005.5,VALID,0,VALID,59.9935,VALID,705.349,VALID,31.5813,VALID,35,VALID,1.0875,
2010-10-19, 01:43:04,VALID,1005.5,VALID,0,VALID,59.7418,VALID,310.438,VALID,31.4813,VALID,32,VALID,1.58359,
2010-10-19, 01:44:04,VALID,1005.5,VALID,0,VALID,61.855,VALID,634.25,VALID,31.1887,VALID,24,VALID,0.931641,
2010-10-19, 01:45:04,VALID,1005.5,VALID,0,VALID,62.3661,VALID,785.296,VALID,31.1887,VALID,26,VALID,0.379687,
2010-10-19, 01:46:04,VALID,1005.51,VALID,0,VALID,60.6649,VALID,783.989,VALID,31.2886,VALID,19,VALID,0.646484,
2010-10-19, 01:47:04,VALID,1005.51,VALID,0,VALID,62.8238,VALID,806.414,VALID,31.4447,VALID,15,VALID,0.386719,
2010-10-19, 01:48:04,VALID,1005.51,VALID,0,VALID,59.7341,VALID,794.85,VALID,31.5203,VALID,96,VALID,0.387891,
2010-10-19, 01:49:04,VALID,1005.54,VALID,0,VALID,60.3292,VALID,867.255,VALID,31.6374,VALID,138,VALID,1.13203,
2010-10-19, 01:50:04,VALID,1005.55,VALID,0,VALID,61.9465,VALID,872.886,VALID,31.5594,VALID,155,VALID,0.686719,
2010-10-19, 01:51:04,VALID,1005.54,VALID,0,VALID,64.0292,VALID,896.217,VALID,31.4423,VALID,141,VALID,1.98828,
2010-10-19, 01:52:04,VALID,1005.57,VALID,0,VALID,67.3783,VALID,915.123,VALID,31.2301,VALID,146,VALID,1.875,
2010-10-19, 01:53:04,VALID,1005.56,VALID,0,VALID,68.3319,VALID,895.714,VALID,30.9959,VALID,151,VALID,1.91406,
2010-10-19, 01:54:04,VALID,1005.55,VALID,0,VALID,68.0878,VALID,880.529,VALID,31.0545,VALID,153,VALID,2.0125,
2010-10-19, 01:55:04,VALID,1005.57,VALID,0,VALID,69.4152,VALID,884.552,VALID,31.0154,VALID,143,VALID,1.87344,
2010-10-19, 01:56:04,VALID,1005.51,VALID,0,VALID,69.5296,VALID,892.496,VALID,30.8203,VALID,134,VALID,2.67852,
2010-10-19, 01:57:04,VALID,1005.51,VALID,0,VALID,66.3713,VALID,903.659,VALID,30.896,VALID,132,VALID,2.97578,
2010-10-19, 01:58:04,VALID,1005.51,VALID,0,VALID,68.2022,VALID,915.626,VALID,30.8399,VALID,148,VALID,2.56055,
2010-10-19, 01:59:04,VALID,1005.51,VALID,0,VALID,69.8348,VALID,917.838,VALID,30.7251,VALID,147,VALID,2.53242,
2010-10-19, 02:00:04,VALID,1005.5,VALID,0,VALID,72.1005,VALID,900.843,VALID,30.7228,VALID,176,VALID,2.03242,
2010-10-19, 02:01:04,VALID,1005.53,VALID,0,VALID,70.2772,VALID,896.82,VALID,30.9179,VALID,162,VALID,2.63281,
2010-10-19, 02:02:04,VALID,1005.5,VALID,0,VALID,69.3847,VALID,894.507,VALID,30.8008,VALID,141,VALID,2.31211,
2010-10-19, 02:03:04,VALID,1005.52,VALID,0,VALID,69.461,VALID,894.809,VALID,30.7618,VALID,151,VALID,3.78437,
2010-10-19, 02:04:04,VALID,1005.57,VALID,0,VALID,70.9104,VALID,896.519,VALID,30.7423,VALID,156,VALID,2.65586,
2010-10-19, 02:05:04,VALID,1005.51,VALID,0,VALID,70.4603,VALID,892.496,VALID,30.6861,VALID,160,VALID,2.74727,
2010-10-19, 02:06:04,VALID,1005.53,VALID,0,VALID,71.5589,VALID,864.841,VALID,30.5277,VALID,169,VALID,1.98242,
2010-10-19, 02:07:04,VALID,1005.54,VALID,0,VALID,72.3065,VALID,864.238,VALID,30.6643,VALID,176,VALID,2.49414,
2010-10-19, 02:08:04,VALID,1005.56,VALID,0,VALID,68.1106,VALID,855.087,VALID,30.6838,VALID,148,VALID,2.90547,
2010-10-19, 02:09:04,VALID,1005.54,VALID,0,VALID,70.0255,VALID,849.154,VALID,30.4669,VALID,174,VALID,2.93555,
2010-10-19, 02:10:04,VALID,1005.55,VALID,0,VALID,70.8952,VALID,849.958,VALID,30.4107,VALID,165,VALID,2.46797,
2010-10-19, 02:11:04,VALID,1005.53,VALID,0,VALID,72.4744,VALID,850.662,VALID,30.4887,VALID,123,VALID,1.80781,
2010-10-19, 02:12:04,VALID,1005.52,VALID,0,VALID,71.6581,VALID,853.176,VALID,30.4107,VALID,125,VALID,2.68086,
2010-10-19, 02:13:04,VALID,1005.54,VALID,0,VALID,72.6803,VALID,859.109,VALID,30.4497,VALID,166,VALID,1.49805,
2010-10-19, 02:14:04,VALID,1005.56,VALID,0,VALID,72.1311,VALID,858.204,VALID,30.8008,VALID,140,VALID,2.00781,
2010-10-19, 02:15:04,VALID,1005.53,VALID,0,VALID,69.5296,VALID,861.623,VALID,30.818,VALID,180,VALID,2.67617,
2010-10-19, 02:16:04,VALID,1005.54,VALID,0,VALID,70.796,VALID,860.819,VALID,30.7033,VALID,157,VALID,1.97891,
2010-10-19, 02:17:04,VALID,1005.52,VALID,0,VALID,70.8036,VALID,859.109,VALID,30.6643,VALID,151,VALID,2.35938,
2010-10-19, 02:18:04,VALID,1005.51,VALID,0,VALID,71.6276,VALID,858.104,VALID,30.6253,VALID,168,VALID,2.55195,
2010-10-19, 02:19:04,VALID,1005.53,VALID,0,VALID,70.8036,VALID,863.132,VALID,30.7228,VALID,167,VALID,2.0957,
2010-10-19, 02:20:04,VALID,1005.5,VALID,0,VALID,69.3694,VALID,864.942,VALID,30.9155,VALID,165,VALID,1.82227,
2010-10-19, 02:21:04,VALID,1005.49,VALID,0,VALID,69.3541,VALID,868.059,VALID,30.7595,VALID,124,VALID,2.2,
2010-10-19, 02:22:04,VALID,1005.49,VALID,0,VALID,69.8271,VALID,818.482,VALID,30.6815,VALID,173,VALID,2.47187,
2010-10-19, 02:23:04,VALID,1005.49,VALID,0,VALID,69.8577,VALID,857.601,VALID,30.5644,VALID,193,VALID,2.16367,
2010-10-19, 02:24:04,VALID,1005.5,VALID,0,VALID,71.4597,VALID,877.512,VALID,30.5449,VALID,172,VALID,2.21602,
2010-10-19, 02:25:04,VALID,1005.51,VALID,0,VALID,70.2391,VALID,880.227,VALID,30.4864,VALID,157,VALID,2.08594,
2010-10-19, 02:26:04,VALID,1005.51,VALID,0,VALID,71.1927,VALID,884.149,VALID,30.6229,VALID,132,VALID,2.5457,
2010-10-19, 02:27:04,VALID,1005.5,VALID,0,VALID,68.5607,VALID,886.06,VALID,30.857,VALID,165,VALID,2.00312,
2010-10-19, 02:28:04,VALID,1005.52,VALID,0,VALID,70.1247,VALID,892.194,VALID,30.7595,VALID,155,VALID,1.55156,
2010-10-19, 02:29:04,VALID,1005.49,VALID,0,VALID,69.9034,VALID,836.583,VALID,30.7205,VALID,184,VALID,2.60977,
2010-10-19, 02:30:04,VALID,1005.47,VALID,0,VALID,69.3465,VALID,872.484,VALID,30.5254,VALID,205,VALID,2.53008,
2010-10-19, 02:31:04,VALID,1005.44,VALID,0,VALID,72.4057,VALID,757.34,VALID,30.3109,VALID,189,VALID,3.42031,
2010-10-19, 02:32:04,VALID,1005.42,VALID,0,VALID,69.11,VALID,907.782,VALID,30.2133,VALID,129,VALID,1.41953,
2010-10-19, 02:33:04,VALID,1005.4,VALID,0,VALID,70.8036,VALID,486.926,VALID,30.2695,VALID,180,VALID,1.95273,
2010-10-19, 02:34:04,VALID,1005.38,VALID,0,VALID,69.6517,VALID,660.598,VALID,30.1938,VALID,215,VALID,1.94883,
2010-10-19, 02:35:04,VALID,1005.32,VALID,0,VALID,71.8412,VALID,888.273,VALID,30.2133,VALID,218,VALID,2.15156,
2010-10-19, 02:36:04,VALID,1005.34,VALID,0,VALID,69.5983,VALID,940.163,VALID,30.3304,VALID,214,VALID,1.99727,
2010-10-19, 02:37:04,VALID,1005.32,VALID,0,VALID,69.2626,VALID,947.504,VALID,30.3109,VALID,204,VALID,2.06836,
2010-10-19, 02:38:04,VALID,1005.31,VALID,0,VALID,69.7127,VALID,946.197,VALID,30.3912,VALID,178,VALID,1.58789,
2010-10-19, 02:39:04,VALID,1005.26,VALID,0,VALID,68.4158,VALID,204.646,VALID,30.5644,VALID,231,VALID,0.885938,
2010-10-19, 02:40:04,VALID,1005.26,VALID,0,VALID,68.9956,VALID,962.086,VALID,30.74,VALID,165,VALID,1.39023,
2010-10-19, 02:41:04,VALID,1005.2,VALID,0,VALID,67.2486,VALID,170.856,VALID,30.779,VALID,206,VALID,1.33711,
2010-10-19, 02:42:04,VALID,1005.17,VALID,0,VALID,68.5455,VALID,183.93,VALID,30.8742,VALID,212,VALID,1.88008,
2010-10-19, 02:43:04,VALID,1005.19,VALID,0,VALID,68.0496,VALID,966.913,VALID,30.9351,VALID,185,VALID,2.15273,
2010-10-19, 02:44:04,VALID,1005.16,VALID,0,VALID,66.7298,VALID,887.468,VALID,30.7595,VALID,209,VALID,2.21758,
2010-10-19, 02:45:04,VALID,1005.18,VALID,0,VALID,67.363,VALID,959.773,VALID,30.74,VALID,167,VALID,2.83984,
2010-10-19, 02:46:04,VALID,1005.18,VALID,0,VALID,66.8824,VALID,968.924,VALID,30.7205,VALID,180,VALID,2.17891,
2010-10-19, 02:47:04,VALID,1005.19,VALID,0,VALID,66.3941,VALID,973.751,VALID,30.7423,VALID,185,VALID,1.96797,
2010-10-19, 02:48:04,VALID,1005.15,VALID,0,VALID,67.5232,VALID,976.164,VALID,30.8984,VALID,106,VALID,0.750781,
2010-10-19, 02:49:04,VALID,1005.13,VALID,0,VALID,67.2181,VALID,979.986,VALID,31.1496,VALID,126,VALID,2.51641,
2010-10-19, 02:50:04,VALID,1005.14,VALID,0,VALID,66.8061,VALID,974.555,VALID,31.0107,VALID,123,VALID,1.81797,
2010-10-19, 02:51:04,VALID,1005.13,VALID,0,VALID,65.8678,VALID,995.372,VALID,31.0326,VALID,168,VALID,2.45898,
2010-10-19, 02:52:04,VALID,1005.12,VALID,0,VALID,68.0649,VALID,1004.52,VALID,31.0326,VALID,184,VALID,0.919141,
2010-10-19, 02:53:04,VALID,1005.11,VALID,0,VALID,65.7533,VALID,1011.96,VALID,31.3252,VALID,157,VALID,1.71055,
2010-10-19, 02:54:04,VALID,1005.06,VALID,0,VALID,64.1665,VALID,1018.9,VALID,31.3838,VALID,136,VALID,2.80664,
2010-10-19, 02:55:04,VALID,1005.03,VALID,0,VALID,67.5995,VALID,1024.03,VALID,31.3838,VALID,167,VALID,1.15977,
2010-10-19, 02:56:04,VALID,1005.03,VALID,0,VALID,66.562,VALID,1031.88,VALID,31.6179,VALID,160,VALID,1.60352,
2010-10-19, 02:57:04,VALID,1005.01,VALID,0,VALID,65.0515,VALID,990.143,VALID,31.6984,VALID,193,VALID,1.425,
2010-10-19, 02:58:04,VALID,1005,VALID,0,VALID,66.5772,VALID,993.763,VALID,31.7155,VALID,160,VALID,2.325,
2010-10-19, 02:59:04,VALID,1004.98,VALID,0,VALID,63.6172,VALID,496.781,VALID,31.5399,VALID,180,VALID,2.64453,
2010-10-19, 03:00:04,VALID,1004.98,VALID,0,VALID,64.5327,VALID,378.821,VALID,31.2082,VALID,181,VALID,2.36406,
2010-10-19, 03:01:04,VALID,1004.96,VALID,0,VALID,66.8977,VALID,439.661,VALID,30.9351,VALID,194,VALID,2.68789,
2010-10-19, 03:02:04,VALID,1004.92,VALID,0,VALID,65.4634,VALID,414.52,VALID,30.896,VALID,204,VALID,2.73711,
2010-10-19, 03:03:04,VALID,1004.92,VALID,0,VALID,66.7756,VALID,550.381,VALID,30.5449,VALID,157,VALID,2.23438,
2010-10-19, 03:04:04,VALID,1004.95,VALID,0,VALID,68.8049,VALID,698.611,VALID,30.5059,VALID,202,VALID,1.51914,
2010-10-19, 03:05:04,VALID,1004.94,VALID,0,VALID,69.1787,VALID,768.301,VALID,30.6229,VALID,137,VALID,2.16016,
2010-10-19, 03:06:04,VALID,1004.92,VALID,0,VALID,67.8284,VALID,622.082,VALID,30.818,VALID,166,VALID,1.54375,
2010-10-19, 03:07:04,VALID,1004.89,VALID,0,VALID,66.684,VALID,424.878,VALID,30.74,VALID,177,VALID,1.57187,
2010-10-19, 03:08:04,VALID,1004.9,VALID,0,VALID,68.1564,VALID,616.954,VALID,30.5449,VALID,154,VALID,2.17773,
2010-10-19, 03:09:04,VALID,1004.87,VALID,0,VALID,67.6453,VALID,514.681,VALID,30.3889,VALID,144,VALID,2.33711,
2010-10-19, 03:10:04,VALID,1004.89,VALID,0,VALID,67.63,VALID,543.14,VALID,30.1548,VALID,159,VALID,2.77227,
2010-10-19, 03:11:04,VALID,1004.85,VALID,0,VALID,69.7509,VALID,640.184,VALID,30.0791,VALID,130,VALID,1.53828,
2010-10-19, 03:12:04,VALID,1004.85,VALID,0,VALID,72.2302,VALID,762.267,VALID,30.1353,VALID,172,VALID,1.56016,
2010-10-19, 03:13:04,VALID,1004.86,VALID,0,VALID,68.5226,VALID,680.912,VALID,30.2718,VALID,183,VALID,2.01484,
2010-10-19, 03:14:04,VALID,1004.86,VALID,0,VALID,66.5162,VALID,852.774,VALID,30.3109,VALID,152,VALID,2.00625,
2010-10-19, 03:15:04,VALID,1004.83,VALID,0,VALID,68.7438,VALID,898.731,VALID,30.3889,VALID,204,VALID,1.69648,
2010-10-19, 03:16:04,VALID,1004.79,VALID,0,VALID,69.85,VALID,759.15,VALID,30.4474,VALID,184,VALID,1.67031,
2010-10-19, 03:17:04,VALID,1004.78,VALID,0,VALID,68.5684,VALID,805.409,VALID,30.4451,VALID,180,VALID,1.9168,
2010-10-19, 03:18:04,VALID,1004.77,VALID,0,VALID,69.7432,VALID,747.384,VALID,30.4279,VALID,195,VALID,2.14531,
2010-10-19, 03:19:04,VALID,1004.77,VALID,0,VALID,67.4546,VALID,634.854,VALID,30.3866,VALID,150,VALID,2.96406,
2010-10-19, 03:20:04,VALID,1004.75,VALID,0,VALID,68.0649,VALID,630.127,VALID,30.2695,VALID,157,VALID,2.37539,
2010-10-19, 03:21:04,VALID,1004.73,VALID,0,VALID,67.5461,VALID,666.833,VALID,30.2913,VALID,158,VALID,1.89648,
2010-10-19, 03:22:04,VALID,1004.74,VALID,0,VALID,67.0273,VALID,637.77,VALID,30.3304,VALID,181,VALID,2.02969,
2010-10-19, 03:23:04,VALID,1004.72,VALID,0,VALID,68.7515,VALID,503.519,VALID,30.3304,VALID,169,VALID,1.25703,
2010-10-19, 03:24:04,VALID,1004.73,VALID,0,VALID,66.8748,VALID,495.474,VALID,30.3866,VALID,170,VALID,1.69961,
2010-10-19, 03:25:04,VALID,1004.7,VALID,0,VALID,69.316,VALID,413.716,VALID,30.3889,VALID,200,VALID,0.975,
2010-10-19, 03:26:04,VALID,1004.69,VALID,0,VALID,66.9587,VALID,352.775,VALID,30.3889,VALID,169,VALID,1.80781,
2010-10-19, 03:27:04,VALID,1004.67,VALID,0,VALID,67.3325,VALID,343.724,VALID,30.1915,VALID,177,VALID,1.97344,
2010-10-19, 03:28:04,VALID,1004.63,VALID,0,VALID,68.4082,VALID,340.406,VALID,30.1353,VALID,135,VALID,1.90039,
2010-10-19, 03:29:04,VALID,1004.61,VALID,0,VALID,67.9428,VALID,339.4,VALID,30.0745,VALID,140,VALID,1.92617,
2010-10-19, 03:30:04,VALID,1004.6,VALID,0,VALID,70.2925,VALID,338.595,VALID,30.1525,VALID,168,VALID,0.876172,
2010-10-19, 03:31:04,VALID,1004.61,VALID,0,VALID,67.508,VALID,338.696,VALID,30.0745,VALID,145,VALID,1.49453,
2010-10-19, 03:32:04,VALID,1004.6,VALID,0,VALID,67.6148,VALID,340.104,VALID,29.9575,VALID,181,VALID,2.14609,
2010-10-19, 03:33:04,VALID,1004.6,VALID,0,VALID,68.4234,VALID,341.21,VALID,29.8015,VALID,183,VALID,1.56094,
2010-10-19, 03:34:04,VALID,1004.59,VALID,0,VALID,70.6129,VALID,344.126,VALID,29.704,VALID,166,VALID,0.988672,